P/2021 P3 ( PanSTARRS )

Japanese version
Home page
Updated on September 18, 2021

---------------------------------------------------------------------

* Profile

Discovery Date August 11, 2021
Magnitude 20.6 mag
Discoverer Pan-STARRS 1 telescope (Haleakala)

* Pictures

* Orbital Elements

Epoch 2021 July 5.0 TT = JDT 2459400.5
T 2021 May 31.54967 TT                                  Rudenko
q   2.9169871            (2000.0)            P               Q
n   0.10597109     Peri.  334.35646     +0.88924433     +0.45721742
a   4.4226011      Node   358.23891     -0.29996874     +0.55971163
e   0.3404363      Incl.   27.15663     -0.34534515     +0.69114045
P   9.30
From 39 observations 2021 Aug. 3-Sept. 1, mean residual 0".4.

* Magnitudes Graph

        m1 = 13.5 + 5 log d + 10.0 log r

---------------------------------------------------------------------

The orbital elements are published on M.P.E.C. 2021-R75.
The magnitudes graphs are made with Comet for Windows.

---------------------------------------------------------------------

Copyright(C) Seiichi Yoshida (comet@aerith.net). All rights reserved.